Location: Castiglione Fibocchi
(43.5333°N, 11.7667°E)
Time: 08:59:25
(UTC+00:00)

ATLAS CENTAUR R/B - Pass Details

Date: 15 August 2020
Orbit: 476 x 670 km, 64.7° (Epoch: 17 September)

Event Time Altitude Azimuth Distance (km) Brightness Sun altitude
Exits shadow 00:37:23 13° 83° (E) 1,627 4.0 -29.7°
Drops below altitude 10° 00:38:09 10° 73° (ENE) 1,793 4.4 -29.6°
Sets 00:40:55 0° 52° (NE) 2,650 5.7 -29.4°
